Orbital Elements at Epoch 2459200.5 (2020-Dec-17.0) TDB
Reference: JPL 16 (heliocentric ecliptic J2000)
Element | Value | Uncertainty (1-sigma) | Units |
e | .1980734079277669 | 3.4467e-08 | |
a | 2.352469027281572 | 1.3098e-08 | au |
q | 1.886507470003392 | 8.4743e-08 | au |
i | 3.600711513049495 | 5.3767e-06 | deg |
node | 205.0100487481909 | 5.8803e-05 | deg |
peri | 59.01999156063352 | 6.0819e-05 | deg |
M | 153.9572806504205 | 1.8467e-05 | deg |
tp | 2458636.885666963171 (2019-Jun-02.38566696) | 6.4479e-05 | TDB |
period | 1317.905584172867 3.61 | 1.1006e-05 3.013e-08 | d yr |
n | .2731606909655369 | 2.2813e-09 | deg/d |
Q | 2.818430584559752 | 1.5692e-08 | au |
|
| | Orbit Determination Parameters
Additional Information
|